Vertical_Velocity
-3 13 -2 -6 -3 -1 3 3 1 -3 -2 4 -2 -1 -1 0 1 1 1 2 -1 -3 -2 -7 -6 -3 -5 1 0 3 3 5 0 -0 -4 -2 4 4 -1 2 3 1 1 -0
16 -1 -8 0 1 3 1 2 -4 -6 -1 3 -1 -5 -1 0 -3 -5 -3 1 3 5 -1 -3 -3 -8 -1 -6 -3 -2 4 4 3 1 -2 -0 1 -4 6 4 -3 -4 0 1
1 -17 1 1 1 5 -1 3 -1 5 -1 1 7 -2 3 7 3 5 1 -0 -2 -0 -2 1 3 -1 -1 -4 -4 -3 -4 -3 -2 10 -0 1 9 4 -0 3 1 -2 2 1
-7 -10 -1 2 0 4 5 -3 1 1 8 1 8 -1 -4 2 2 2 0 3 -1 -3 0 2 1 -2 -5 -0 -0 1 4 -7 -3 -9 5 1 -5 -6 -5 1 -3 1 -2 -0
-32 1 2 5 -11 4 -12 0 1 1 2 11 3 10 -1 2 5 1 -0 -2 1 -5 -3 -7 -7 -3 -6 -3 -3 -5 -2 9 20 -10 -2 -0 2 -2 6 3 -6 -2 -5 -16
-12 -4 4 -13 -4 -0 -2 4 3 2 5 7 -7 11 5 0 -4 1 2 -1 -3 4 -0 3 -4 -0 -3 1 -2 -0 1 -1 11 -6 -9 -4 -2 13 -1 -7 -4 -1 1 2
7 -0 0 2 8 6 7 9 2 6 7 -8 -1 4 -7 -4 1 0 0 0 3 -6 -0 2 7 -3 1 1 -1 -2 -2 -2 4 -1 -1 -4 -0 0 -6 -1 2 -3 1 3
-1 29 4 0 -4 -14 -6 1 0 -3 0 -4 0 -2 -15 2 -0 -0 -2 -3 1 5 -0 -4 -3 -0 -0 2 -5 -2 -2 -3 1 -1 -5 -1 -4 0 3 -3 1 0 -2 1
4 -3 8 3 -1 15 -11 11 -11 6 0 6 -2 -3 4 0 -0 -0 0 -1 0 -3 1 5 1 3 -2 0 -1 -6 2 1 -0 0 1 1 1 2 0 3 -1 1 2 8
-6 11 -2 1 10 2 8 -10 9 2 3 -1 -5 -2 -5 3 -0 1 -0 1 1 -4 -0 1 3 2 7 1 5 -1 -0 -2 2 4 1 1 -0 3 4 4 -3 -1 8 11
-0 11 6 8 3 -7 9 3 3 8 4 1 -1 -5 7 1 -0 -0 -1 -2 -0 2 -2 -3 -1 1 -1 9 1 -1 2 3 4 4 2 1 4 4 2 1 6 10 9 12
-18 -3 2 -16 -12 -3 -3 -8 -0 8 -10 -2 2 -19 1 0 -1 1 -1 -1 5 -3 2 -0 -2 -2 2 1 7 4 -0 4 8 0 11 2 -2 -5 -3 0 0 1 1 7
-13 -2 4 20 22 5 4 -5 -1 0 5 -5 5 -14 -2 0 -0 -3 -1 -2 -1 -3 3 -1 1 0 -0 0 3 3 0 -0 7 17 -4 -4 -0 -1 -1 -7 -7 5 1 -12
11 2 -4 -13 -23 -5 8 1 -0 6 8 -7 -7 -8 -8 -3 -0 -3 -1 2 -7 4 -1 3 -1 -0 -1 1 -1 -0 4 8 6 -4 -3 4 4 2 4 4 5 9 3 -13
8 1 6 -4 -2 3 -4 -3 -1 6 -9 11 -15 2 -8 -3 0 -1 1 5 4 -0 0 -1 2 1 1 1 3 5 4 8 4 1 4 2 3 6 1 -1 -0 0 -3 -3
0 -5 6 -1 -0 2 2 -1 0 -0 -1 2 3 -7 -1 -4 -1 -1 -3 0 -1 -1 -1 -0 -1 9 1 1 5 18 4 4 6 1 -2 3 1 -2 1 -4 1 4 1 -1
4 2 6 -8 1 5 14 -10 -2 -3 0 2 4 -13 -2 -3 -1 -1 -1 -1 -1 0 -1 -0 -1 2 -1 5 -2 -2 -4 -6 -4 -2 -0 -2 2 3 2 -1 2 -0 -1 3
2 4 3 -3 2 10 -21 -1 -1 2 -4 -1 2 -3 -1 -1 -4 2 -4 -2 -0 -3 1 0 -0 0 2 6 -1 -1 4 4 4 -1 0 2 -0 2 2 -0 0 -1 0 -5
3 2 0 1 -1 -11 2 -1 -2 5 -19 -2 0 -3 -3 1 -4 -6 -7 -4 4 1 2 -0 1 0 1 -0 -2 -2 -1 -0 2 2 3 2 2 -0 -0 0 -0 1 0 1
4 2 8 2 4 -3 -17 -4 -2 5 -11 -3 5 -2 0 1 3 -4 -3 -1 -3 -1 -3 -0 -0 -0 -2 2 1 -1 -3 -3 -1 -4 -5 -4 -4 -1 1 -4 -2 -2 -2 -1
1 1 -2 -0 -1 -4 -5 -3 4 17 -39 0 1 -1 -1 1 1 -0 -2 2 1 -2 -2 -1 0 -0 1 0 -1 2 2 3 2 1 3 3 -1 -3 2 1 -1 -2 -1 -0
-7 0 -1 3 4 -4 -2 4 2 -25 -6 -1 -2 0 -2 5 -2 -1 1 -1 -0 1 -2 0 -1 1 1 1 -0 3 0 -1 -2 -1 0 2 3 -0 2 2 -0 0 3 1
14 -10 -3 -2 -8 -5 -5 -5 -7 5 -1 2 1 2 -2 -0 -2 -1 -1 -0 0 0 0 -1 -2 -1 -0 -0 4 3 3 1 2 3 2 3 -1 -2 -1 -0 0 -0 1 1
1 0 3 24 -16 -5 -0 -6 0 -1 -2 3 -2 -0 2 -3 -2 -0 0 1 -0 1 2 2 1 1 0 -0 -1 2 5 1 0 1 0 0 -1 -1 0 -0 -2 -0 -0 -0
-11 7 -3 -6 -4 4 -2 -6 -2 2 -3 -3 2 -1 -3 -1 1 -2 0 1 2 0 2 3 5 4 3 4 4 3 2 3 1 3 1 1 1 -0 -1 -1 -0 2 -4 -1
-3 -10 1 -8 -6 2 -11 3 -3 -0 1 1 -2 1 5 2 -4 -0 1 1 0 1 1 2 -0 1 2 2 4 6 6 5 -0 1 2 -1 -1 -0 0 2 -3 4 1 -3
Height
1486 1485 1481 1470 1467 1467 1465 1467 1466 1463 1462 1465 1462 1458 1458 1466 1472 1477 1480 1485 1492 1496 1498 1501 1503 1507 1512 1516 1519 1522 1525 1527 1530 1533 1537 1540 1542 1542 1545 1549 1550 1551 1554 1555
1478 1480 1469 1466 1467 1469 1471 1471 1467 1460 1458 1467 1460 1457 1456 1459 1466 1472 1478 1481 1485 1490 1497 1501 1504 1506 1510 1513 1517 1520 1524 1526 1528 1532 1536 1538 1540 1540 1543 1546 1546 1549 1551 1553
1473 1467 1466 1471 1472 1476 1471 1469 1468 1467 1458 1459 1460 1458 1450 1451 1461 1467 1473 1476 1481 1486 1491 1496 1499 1504 1508 1512 1514 1518 1521 1524 1527 1532 1534 1536 1538 1540 1540 1543 1543 1544 1547 1550
1467 1464 1469 1471 1471 1469 1471 1460 1467 1465 1465 1478 1454 1473 1459 1446 1454 1460 1466 1470 1475 1481 1488 1493 1497 1500 1504 1507 1512 1515 1519 1521 1524 1526 1530 1532 1533 1536 1538 1539 1539 1541 1543 1546
1463 1462 1465 1470 1468 1465 1467 1464 1466 1463 1461 1454 1450 1457 1442 1440 1445 1448 1456 1463 1467 1473 1479 1485 1489 1494 1498 1502 1505 1510 1514 1517 1520 1521 1524 1528 1531 1533 1534 1535 1535 1537 1540 1542
1455 1456 1459 1460 1460 1463 1464 1468 1466 1463 1460 1471 1452 1452 1450 1440 1441 1443 1442 1453 1460 1465 1470 1476 1482 1488 1492 1497 1500 1504 1507 1511 1515 1516 1519 1523 1526 1528 1528 1529 1531 1533 1534 1537
1457 1453 1457 1460 1462 1462 1465 1467 1476 1479 1470 1471 1453 1455 1442 1441 1436 1442 1444 1447 1451 1458 1464 1468 1473 1479 1484 1488 1493 1497 1501 1505 1509 1510 1512 1515 1518 1521 1521 1523 1525 1528 1529 1532
1457 1460 1452 1455 1455 1459 1461 1459 1467 1485 1478 1462 1454 1458 1441 1433 1439 1443 1446 1446 1448 1450 1455 1461 1465 1471 1476 1481 1485 1490 1493 1497 1502 1504 1506 1509 1512 1515 1516 1518 1520 1522 1525 1528
1445 1447 1439 1445 1452 1451 1451 1458 1448 1459 1456 1465 1450 1437 1433 1433 1438 1441 1441 1443 1445 1448 1450 1452 1458 1463 1469 1474 1479 1482 1487 1491 1495 1497 1500 1503 1506 1508 1510 1514 1515 1517 1520 1523
1433 1446 1435 1444 1448 1448 1451 1449 1464 1458 1478 1485 1450 1443 1441 1436 1437 1439 1439 1441 1444 1447 1448 1449 1451 1457 1463 1468 1473 1477 1481 1485 1489 1493 1495 1496 1499 1503 1506 1508 1510 1512 1514 1518
1431 1438 1438 1441 1448 1446 1453 1453 1450 1445 1457 1469 1467 1448 1439 1433 1434 1438 1439 1443 1444 1445 1447 1448 1450 1453 1458 1463 1468 1471 1475 1480 1484 1487 1489 1490 1492 1497 1500 1503 1506 1508 1510 1511
1429 1435 1438 1441 1436 1436 1433 1442 1444 1456 1459 1450 1455 1451 1431 1435 1436 1438 1440 1441 1442 1445 1445 1447 1449 1452 1454 1458 1463 1467 1471 1475 1479 1482 1484 1483 1488 1492 1495 1497 1500 1504 1505 1506
1428 1435 1445 1439 1438 1437 1439 1435 1435 1437 1440 1451 1467 1457 1431 1432 1436 1438 1438 1439 1440 1443 1443 1446 1447 1449 1452 1455 1459 1462 1466 1470 1475 1476 1475 1477 1481 1485 1489 1492 1494 1497 1500 1506
1426 1427 1432 1437 1431 1431 1441 1437 1433 1437 1447 1451 1447 1441 1430 1428 1431 1434 1431 1433 1437 1438 1441 1442 1445 1447 1450 1452 1456 1459 1463 1467 1469 1467 1471 1473 1477 1480 1483 1486 1488 1492 1497 1500
1425 1428 1426 1424 1419 1419 1421 1427 1431 1434 1435 1442 1439 1434 1428 1424 1425 1426 1427 1428 1432 1436 1438 1440 1442 1444 1447 1450 1453 1456 1459 1461 1463 1465 1469 1471 1473 1478 1482 1486 1489 1491 1497 1498
1421 1426 1424 1424 1420 1419 1422 1421 1423 1422 1423 1426 1427 1427 1420 1421 1422 1426 1428 1430 1432 1435 1437 1439 1440 1441 1445 1449 1452 1455 1455 1457 1459 1459 1463 1467 1471 1475 1479 1483 1487 1490 1493 1497
1421 1423 1423 1430 1419 1420 1429 1423 1422 1420 1418 1422 1429 1422 1419 1418 1419 1423 1424 1427 1430 1435 1437 1437 1438 1440 1443 1447 1446 1448 1450 1453 1457 1460 1462 1467 1470 1474 1479 1482 1486 1488 1493 1496
1424 1422 1420 1431 1439 1441 1420 1417 1416 1418 1415 1415 1415 1416 1417 1417 1418 1420 1426 1427 1430 1435 1435 1434 1436 1439 1442 1443 1444 1447 1449 1452 1453 1457 1461 1465 1470 1474 1478 1482 1485 1488 1491 1494
1427 1425 1426 1434 1429 1423 1413 1418 1418 1417 1416 1410 1410 1411 1412 1413 1417 1420 1424 1427 1430 1432 1434 1435 1437 1439 1442 1442 1444 1448 1451 1454 1456 1459 1462 1466 1471 1474 1478 1481 1484 1487 1489 1491
1419 1423 1426 1430 1431 1431 1414 1408 1411 1410 1417 1405 1406 1406 1410 1414 1421 1413 1420 1424 1427 1431 1433 1435 1436 1439 1442 1444 1446 1446 1449 1454 1458 1461 1464 1467 1471 1475 1478 1480 1483 1485 1486 1488
1427 1429 1428 1424 1425 1408 1397 1401 1404 1422 1415 1400 1403 1405 1409 1412 1416 1418 1421 1424 1426 1428 1431 1434 1437 1439 1442 1444 1447 1449 1452 1454 1457 1460 1464 1468 1471 1474 1476 1477 1479 1480 1482 1484
1420 1423 1424 1421 1426 1428 1402 1406 1409 1402 1400 1402 1404 1404 1408 1411 1415 1418 1420 1422 1424 1426 1428 1433 1436 1439 1441 1444 1447 1450 1453 1455 1457 1460 1463 1467 1469 1471 1473 1475 1477 1478 1479 1479
1403 1405 1407 1404 1402 1397 1398 1396 1396 1398 1398 1399 1402 1403 1406 1409 1412 1416 1418 1420 1423 1425 1427 1431 1434 1437 1441 1443 1447 1449 1452 1454 1457 1460 1463 1465 1467 1469 1471 1474 1475 1475 1476 1475
1389 1391 1394 1398 1393 1393 1395 1396 1397 1397 1399 1400 1401 1402 1405 1406 1410 1413 1416 1419 1421 1425 1427 1429 1432 1436 1439 1443 1446 1449 1452 1455 1458 1460 1462 1463 1465 1467 1468 1469 1470 1471 1471 1470
1386 1387 1391 1388 1388 1388 1390 1392 1393 1395 1396 1397 1399 1399 1401 1403 1406 1409 1414 1417 1421 1425 1429 1431 1434 1437 1440 1444 1447 1449 1451 1453 1456 1458 1460 1462 1463 1464 1464 1465 1465 1465 1463 1465
1381 1381 1383 1387 1385 1385 1384 1388 1390 1390 1392 1392 1395 1397 1398 1398 1402 1406 1411 1416 1420 1424 1428 1432 1435 1438 1442 1445 1448 1450 1452 1452 1453 1456 1458 1459 1462 1462 1463 1462 1461 1461 1459 1459